Location: Chuathbaluk
(61.5726°N, 159.2454°W)
Time: 04:15:16
(UTC+00:00)

Transit 2A - Pass Details

Date: 01 December 2020
Orbit: 599 x 960 km, 66.7° (Epoch: 26 January)

Event Time Altitude Azimuth Distance (km) Brightness Sun altitude
Rises 04:19:18 0° 211° (SSW) 3,609 10.1 -18.3°
Reaches altitude 10° 04:21:57 10° 207° (SSW) 2,641 9.3 -18.6°
Maximum altitude 04:27:56 55° 132° (SE) 1,066 6.5 -19.3°
Enters shadow 04:30:05 36° 75° (ENE) 1,355 6.7 -19.6°
Drops below altitude 10° 04:33:30 10° 56° (NE) 2,455 - -20.0°
Sets 04:35:53 0° 52° (NE) 3,336 - -20.3°
